Location: ????????
(55.7667°N, 37.4833°E)
Time: 07:58:12
(UTC+00:00)

Cosmos 1805 Rocket - Pass Details

Date: 19 May 2025
Orbit: 600 x 623 km, 82.5° (Epoch: 23 June)

Event Time Altitude Azimuth Distance (km) Brightness Sun altitude
Rises 21:23:37 0° 343° (NNW) 2,922 8.6 -14.3°
Reaches altitude 10° 21:25:57 10° 337° (NNW) 2,009 7.3 -14.3°
Maximum altitude 21:30:08 41° 267° (W) 907 4.4 -14.3°
Enters shadow 21:32:43 20° 208° (SSW) 1,429 4.9 -14.3°
